Погода в Старом Тябердино

Россия / Республика Татарстан     55°20′27″N   47°43′22″E
темп.,
°C
ветер,
м/с
пор.,
м/с
влажн.,
%
обл.,
%
осадки,
мм/ч
давл.,
гПа
погр.,
м
15 мая, сб
сб1500:00+19ююв3378100 0.0 101821
03:00+18ююв3581100 0.0 101782
06:00+19ююв496984 0.0 1017230
09:00+25ю61344100 0.0 1017642
12:00+28ююз71236100 0.0 10171282
15:00+28ююз71136100 0.0 10171358
18:00+25ю511505 0.0 1016318
21:00+20ю412623 0.0 1016222
16 мая, вс
вс1600:00+18ю47626 0.0 1015115
03:00+17ю3105945 0.0 1016160
06:00+18ююв38645 0.0 1016208
09:00+24ююз584685 0.0 1016579
12:00+26ююз71040100 0.0 1016989
15:00+28ююз610399 0.0 10151814
18:00+25юз245621 0.0 1015120
21:00+20ююз36615 0.0 101693
17 мая, пн
пн1700:00+18юз226869 0.0 101619
03:00+16з227375 0.0 101712
06:00+18зсз127040 0.0 101885
09:00+24зюз11536 0.0 1018443
12:00+27ююз23427 0.0 10181103
15:00+29юз243526 0.0 10171958
18:00+26сз365579 0.0 1017157
21:00+22вюв015796 0.0 101811
18 мая, вт
вт1800:00+20в1159100 0.0 101811
03:00+19юв3363100 0.0 101832
06:00+20юв235779 0.0 101877
09:00+25ююв4542100 0.0 1018444
12:00+28ююв562898 0.0 10171451
15:00+28юв4428100 0.0 10171535
18:00+25юв3648100 0.0 1016121
21:00+20вюв464767 0.0 101779
19 мая, ср
ср1900:00+18вюв5136818 0.0 1017252
03:00+16юв4117697 0.0 1017208
06:00+18вюв512747 0.0 1017329
09:00+23юв710539 0.0 1016588
12:00+27юв7104152 0.0 10161238
15:00+28юв78405 0.0 10151914
18:00+25юв59515 0.0 1013274
21:00+20юв8175694 0.0 1014414